When you browse on this site, cookies collect data to enhance your experience and personalize the content and advertising you see.
Visit our Privacy Policy to learn more. By continuing to use the site, you agree to this use of cookies and data.
  • In Spain
  • List of Countries
  • For 7 days
  • Water Temperature
  • Satellite Maps
  • Weather Map
  • Weather Widgets
  • user-avatar
    Login

    Hourly Weather Imphal

    Today, 21 July, Sunday

    Time Temperature Precipitation Wind Pressure Humidity
    00:00 +23°C° 0 mm 0 mps 688 mmHg 96%
    01:00 +22°C° 0 mm 0 mps 688 mmHg 96%
    02:00 +22°C° 0 mm 0 mps 687 mmHg 97%
    03:00 +22°C° 0 mm 0 mps 687 mmHg 97%
    04:00 +22°C° 0 mm 0 mps 687 mmHg 97%
    05:00 +22°C° 0 mm 0 mps 688 mmHg 96%
    06:00 +25°C° 0 mm 1 mps 688 mmHg 97%
    07:00 +26°C° 0.1 mm 1 mps 688 mmHg 92%
    08:00 +27°C° 0.1 mm 1 mps 689 mmHg 87%
    09:00 +29°C° 0.1 mm 1 mps 689 mmHg 82%
    10:00 +29°C° 0.7 mm 1 mps 689 mmHg 79%
    11:00 +30°C° 0.7 mm 1 mps 689 mmHg 77%
    12:00 +30°C° 0.7 mm 1 mps 689 mmHg 75%
    13:00 +30°C° 0.5 mm 1 mps 688 mmHg 77%
    14:00 +30°C° 0.5 mm 1 mps 687 mmHg 79%
    15:00 +29°C° 0.5 mm 1 mps 687 mmHg 81%
    16:00 +28°C° 0.3 mm 1 mps 686 mmHg 85%
    17:00 +28°C° 0.3 mm 1 mps 686 mmHg 89%
    18:00 +27°C° 0.3 mm 1 mps 686 mmHg 93%
    19:00 +26°C° 0 mm 1 mps 687 mmHg 94%
    20:00 +26°C° 0 mm 1 mps 687 mmHg 95%
    21:00 +25°C° 0 mm 1 mps 688 mmHg 96%
    22:00 +23°C° 0 mm 0 mps 688 mmHg 96%
    23:00 +22°C° 0 mm 0 mps 688 mmHg 96%

    Tomorrow, 22 July, Monday

    Time Temperature Precipitation Wind Pressure Humidity
    00:00 +22°C° 0 mm 0 mps 687 mmHg 97%
    01:00 +22°C° 0 mm 0 mps 687 mmHg 97%
    02:00 +22°C° 0 mm 0 mps 687 mmHg 97%
    03:00 +22°C° 0 mm 0 mps 687 mmHg 97%
    04:00 +22°C° 0.1 mm 0 mps 687 mmHg 97%
    05:00 +22°C° 0.1 mm 0 mps 687 mmHg 96%
    06:00 +22°C° 0.1 mm 0 mps 687 mmHg 96%
    07:00 +25°C° 0.2 mm 1 mps 688 mmHg 93%
    08:00 +26°C° 0.2 mm 1 mps 688 mmHg 90%
    09:00 +27°C° 0.2 mm 1 mps 689 mmHg 86%
    10:00 +28°C° 1.1 mm 1 mps 689 mmHg 85%
    11:00 +29°C° 1.1 mm 1 mps 688 mmHg 84%
    12:00 +29°C° 1.1 mm 2 mps 688 mmHg 83%
    13:00 +29°C° 1.3 mm 2 mps 688 mmHg 86%
    14:00 +28°C° 1.3 mm 2 mps 687 mmHg 88%
    15:00 +28°C° 1.3 mm 2 mps 687 mmHg 90%
    16:00 +27°C° 0.8 mm 1 mps 687 mmHg 92%
    17:00 +26°C° 0.8 mm 1 mps 687 mmHg 94%
    18:00 +25°C° 0.8 mm 1 mps 687 mmHg 96%
    19:00 +25°C° 0.1 mm 1 mps 687 mmHg 96%
    20:00 +24°C° 0.1 mm 1 mps 688 mmHg 97%
    21:00 +24°C° 0.1 mm 1 mps 688 mmHg 97%
    22:00 +24°C° 0 mm 1 mps 688 mmHg 97%
    23:00 +22°C° 0 mm 0 mps 688 mmHg 97%

    Day after tomorrow, 23 July, Tuesday

    Time Temperature Precipitation Wind Pressure Humidity
    00:00 +21°C° 0 mm 0 mps 688 mmHg 97%
    01:00 +21°C° 0 mm 0 mps 687 mmHg 97%
    02:00 +23°C° 0 mm 1 mps 687 mmHg 97%
    03:00 +23°C° 0 mm 1 mps 687 mmHg 97%
    04:00 +23°C° 0 mm 1 mps 687 mmHg 97%
    05:00 +23°C° 0 mm 1 mps 687 mmHg 97%
    06:00 +23°C° 0 mm 1 mps 687 mmHg 97%
    07:00 +24°C° 0 mm 1 mps 688 mmHg 95%
    08:00 +24°C° 0 mm 1 mps 688 mmHg 93%
    09:00 +25°C° 0 mm 1 mps 689 mmHg 92%
    10:00 +25°C° 0.2 mm 1 mps 688 mmHg 90%
    11:00 +26°C° 0.2 mm 1 mps 688 mmHg 89%
    12:00 +26°C° 0.2 mm 1 mps 688 mmHg 88%
    13:00 +26°C° 0.3 mm 1 mps 687 mmHg 89%
    14:00 +25°C° 0.3 mm 1 mps 687 mmHg 91%
    15:00 +25°C° 0.3 mm 1 mps 686 mmHg 92%
    16:00 +25°C° 0.1 mm 1 mps 687 mmHg 93%
    17:00 +23°C° 0.1 mm 0 mps 687 mmHg 94%
    18:00 +22°C° 0.1 mm 0 mps 687 mmHg 95%
    19:00 +22°C° 0.2 mm 0 mps 687 mmHg 96%
    20:00 +22°C° 0.2 mm 0 mps 688 mmHg 96%
    21:00 +22°C° 0.2 mm 0 mps 688 mmHg 97%
    22:00 +22°C° 0.2 mm 0 mps 688 mmHg 97%
    23:00 +22°C° 0.2 mm 0 mps 688 mmHg 97%

    24 July, Wednesday

    Time Temperature Precipitation Wind Pressure Humidity
    00:00 +21°C° 0.2 mm 0 mps 688 mmHg 98%
    01:00 +21°C° 0.3 mm 0 mps 688 mmHg 98%
    02:00 +21°C° 0.3 mm 0 mps 687 mmHg 98%
    03:00 +21°C° 0.3 mm 0 mps 687 mmHg 98%
    04:00 +21°C° 0.2 mm 0 mps 687 mmHg 98%
    05:00 +21°C° 0.2 mm 0 mps 687 mmHg 98%
    06:00 +21°C° 0.2 mm 0 mps 687 mmHg 98%
    07:00 +22°C° 0 mm 0 mps 688 mmHg 97%
    08:00 +22°C° 0 mm 0 mps 688 mmHg 95%
    09:00 +22°C° 0 mm 0 mps 689 mmHg 94%
    10:00 +23°C° 0.1 mm 0 mps 689 mmHg 93%
    11:00 +23°C° 0.1 mm 0 mps 688 mmHg 92%
    12:00 +24°C° 0.1 mm 0 mps 688 mmHg 90%
    13:00 +24°C° 0.1 mm 0 mps 688 mmHg 88%
    14:00 +24°C° 0.1 mm 0 mps 687 mmHg 86%
    15:00 +25°C° 0.1 mm 0 mps 687 mmHg 84%
    16:00 +24°C° 0.2 mm 0 mps 687 mmHg 87%
    17:00 +26°C° 0.2 mm 1 mps 687 mmHg 90%
    18:00 +25°C° 0.2 mm 1 mps 687 mmHg 92%
    19:00 +23°C° 0.1 mm 0 mps 687 mmHg 94%
    20:00 +22°C° 0.1 mm 0 mps 688 mmHg 95%
    21:00 +22°C° 0.1 mm 0 mps 689 mmHg 97%
    22:00 +22°C° 0 mm 0 mps 688 mmHg 97%
    23:00 +21°C° 0 mm 0 mps 688 mmHg 98%

    25 July, Thursday

    Time Temperature Precipitation Wind Pressure Humidity
    00:00 +21°C° 0 mm 0 mps 688 mmHg 98%
    01:00 +21°C° 0 mm 0 mps 688 mmHg 98%
    02:00 +21°C° 0 mm 0 mps 688 mmHg 98%
    03:00 +21°C° 0 mm 0 mps 688 mmHg 98%
    04:00 +21°C° 0.1 mm 0 mps 688 mmHg 98%
    05:00 +21°C° 0.1 mm 0 mps 688 mmHg 97%
    06:00 +22°C° 0.1 mm 0 mps 688 mmHg 97%
    07:00 +22°C° 0.1 mm 0 mps 689 mmHg 95%
    08:00 +23°C° 0.1 mm 0 mps 689 mmHg 94%
    09:00 +24°C° 0.1 mm 0 mps 690 mmHg 92%
    10:00 +24°C° 0.6 mm 0 mps 689 mmHg 91%
    11:00 +26°C° 0.6 mm 1 mps 689 mmHg 90%
    12:00 +27°C° 0.6 mm 1 mps 689 mmHg 90%
    13:00 +27°C° 0.8 mm 1 mps 688 mmHg 87%
    14:00 +28°C° 0.8 mm 1 mps 687 mmHg 84%
    15:00 +29°C° 0.8 mm 1 mps 687 mmHg 82%
    16:00 +28°C° 0.5 mm 1 mps 687 mmHg 85%
    17:00 +27°C° 0.5 mm 1 mps 687 mmHg 88%
    18:00 +26°C° 0.5 mm 1 mps 687 mmHg 92%
    19:00 +26°C° 0.2 mm 1 mps 687 mmHg 93%
    20:00 +25°C° 0.2 mm 1 mps 688 mmHg 95%
    21:00 +22°C° 0.2 mm 0 mps 688 mmHg 97%
    22:00 +22°C° 0.2 mm 0 mps 688 mmHg 98%
    23:00 +21°C° 0.2 mm 0 mps 688 mmHg 98%

    26 July, Friday

    Time Temperature Precipitation Wind Pressure Humidity
    00:00 +21°C° 0.2 mm 0 mps 688 mmHg 98%
    01:00 +21°C° 0.3 mm 0 mps 688 mmHg 98%
    02:00 +21°C° 0.3 mm 0 mps 687 mmHg 98%
    03:00 +21°C° 0.3 mm 0 mps 687 mmHg 98%
    04:00 +21°C° 0.4 mm 0 mps 687 mmHg 97%
    05:00 +22°C° 0.4 mm 0 mps 688 mmHg 97%
    06:00 +22°C° 0.4 mm 0 mps 688 mmHg 97%
    07:00 +23°C° 0.4 mm 0 mps 688 mmHg 95%
    08:00 +25°C° 0.4 mm 1 mps 689 mmHg 93%
    09:00 +26°C° 0.4 mm 1 mps 689 mmHg 90%
    10:00 +26°C° 1 mm 1 mps 689 mmHg 91%
    11:00 +26°C° 1 mm 1 mps 688 mmHg 92%
    12:00 +26°C° 1 mm 1 mps 688 mmHg 93%
    13:00 +27°C° 0.6 mm 1 mps 687 mmHg 87%
    14:00 +29°C° 0.6 mm 1 mps 687 mmHg 81%
    15:00 +30°C° 0.6 mm 1 mps 686 mmHg 74%
    16:00 +29°C° 0.8 mm 1 mps 686 mmHg 80%
    17:00 +28°C° 0.8 mm 1 mps 686 mmHg 85%
    18:00 +27°C° 0.8 mm 1 mps 686 mmHg 91%
    19:00 +24°C° 0.7 mm 0 mps 687 mmHg 93%
    20:00 +23°C° 0.7 mm 0 mps 687 mmHg 95%
    21:00 +22°C° 0.7 mm 0 mps 688 mmHg 97%
    22:00 +22°C° 1.3 mm 0 mps 688 mmHg 97%
    23:00 +22°C° 1.3 mm 0 mps 688 mmHg 98%
    Show more